#timestamp,LO_Frequency,Hit,StdDev 
1666692015.7,286046999.1,N
1666692035.5,286046998.6,N
1666692055.3,286046998.2,N
1666692075.2,286046998.2,N
1666692095.0,286047000.2,N
1666692095.9,286047000.2,N
1666692115.8,286046999.7,N
1666692135.6,286047002.6,N
1666692155.4,286047000.3,N
1666692175.3,286046999.7,N
1666692195.1,286046999.9,N
1666692215.8,286046999.7,N
1666692235.7,286046998.5,N
1666692255.5,286046999.0,N
1666692275.4,286046999.6,N
1666692295.2,286046998.7,N
1666692315.0,286047001.1,N
1666692315.9,286047001.1,N
1666692335.8,286046998.5,N
1666692355.6,286046998.3,N
1666692375.4,286046998.3,N
1666692395.3,286047000.8,N
1666692415.1,286047001.1,N
1666692435.9,286047001.2,N
1666692455.7,286046998.6,N
1666692475.5,286046998.9,N
1666692495.4,286046999.5,N
1666692515.2,286046999.2,N
1666692535.1,286046999.5,N
1666692536.0,286046999.5,N
1666692555.8,286046996.6,Y
1666692575.6,286046997.9,P
1666692595.5,286046997.3,P
1666692615.3,286046996.5,P
1666692635.2,286046997.4,N
1666692655.9,286046997.3,N
1666692675.7,286046995.1,Y
1666692695.6,286046998.5,P
1666692715.4,286046998.3,P
1666692735.3,286046999.0,N
1666692755.1,286047001.1,N
1666692756.0,286047001.1,N
1666692775.8,286046999.4,N
1666692795.7,286046999.3,N
1666692815.5,286046996.5,Y
1666692835.4,286046999.5,P
1666692855.2,286046999.6,P
1666692875.0,286046999.4,P
1666692875.9,286046999.4,Y
1666692895.8,286046999.3,P
1666692915.6,286046998.7,P
1666692935.4,286046999.5,N
1666692955.3,286046999.1,N
1666692975.1,286046999.0,Y
1666692995.9,286046998.8,P
1666693015.7,286046998.8,P
1666693035.5,286046999.4,P
1666693055.4,286046999.3,N
1666693075.2,286046999.6,N
1666693095.0,286046999.2,N
1666693096.0,286046999.2,Y
1666693115.8,286047000.5,P
1666693135.6,286046998.6,N
1666693155.5,286047001.1,N
1666693175.3,286046998.6,N
1666693195.2,286046998.8,N
1666693215.9,286046998.4,N
1666693235.7,286046999.0,N
1666693255.6,286046996.6,Y
1666693275.4,286046999.1,P
1666693295.2,286046999.1,P
1666693315.1,286046999.5,P
1666693316.0,286046999.5,Y
1666693335.8,286047001.2,P
1666693355.7,286047000.8,N
1666693375.5,286046998.2,N
1666693395.3,286046998.8,N
1666693415.2,286046998.1,N
1666693435.0,286047000.8,N
1666693435.9,286047000.8,N
1666693455.7,286046998.8,N
1666693475.6,286047000.8,N
1666693495.4,286046998.8,N
1666693515.3,286046998.7,N
1666693535.1,286046999.1,N
1666693536.0,286046999.1,N
1666693555.8,286046997.0,N
1666693575.7,286046996.5,N
1666693595.5,286046996.5,N
1666693615.3,286046996.7,N
1666693635.2,286046999.6,N
1666693655.0,286046997.2,N
1666693655.9,286046997.2,N
1666693675.8,286046997.1,N
1666693695.6,286046999.5,N
1666693715.4,286046999.2,N
1666693735.3,286046996.5,N
1666693755.1,286046999.5,N
1666693775.9,286046999.0,N
1666693795.7,286046999.1,N
1666693815.5,286046996.5,N
1666693835.4,286046998.7,N
1666693855.2,286046998.7,N
1666693875.0,286046996.5,N
1666693875.9,286046996.5,N
1666693895.8,286046996.8,N
1666693915.6,286046996.6,N
1666693935.5,286046994.9,Y
1666693955.3,286046996.6,P
1666693975.1,286046999.6,N
1666693995.9,286046999.6,N
1666694015.7,286046999.3,N
1666694035.5,286046999.3,N
1666694055.4,286046999.2,N
1666694075.2,286046998.9,N
1666694095.0,286046998.6,N
1666694096.0,286046998.6,N
1666694115.8,286046998.5,N
1666694135.6,286046998.9,N
1666694155.5,286046998.8,N
1666694175.3,286046998.9,N
1666694195.1,286046999.3,N
1666694215.9,286046998.7,N
1666694235.7,286046998.7,N
1666694255.6,286046999.4,N
1666694275.4,286046999.6,N
1666694295.2,286046997.0,Y
1666694315.1,286046998.2,P
1666694316.0,286046998.2,P
1666694335.8,286046998.9,P
1666694355.6,286046998.7,Y
1666694375.5,286047000.6,P
1666694395.3,286047000.5,N
1666694415.2,286047000.6,N
1666694435.0,286046998.1,N
1666694435.9,286046998.1,N
1666694455.7,286047001.2,N
1666694475.6,286047000.5,N
1666694495.4,286047000.8,N
1666694515.3,286047001.0,N
1666694535.1,286046998.6,N
1666694536.0,286046998.6,N
1666694555.8,286046998.2,N
1666694575.7,286047000.1,N
1666694595.5,286047001.2,N
1666694615.3,286046998.5,N
1666694635.2,286047001.2,N
1666694655.0,286046998.9,N
1666694655.9,286046998.9,N
1666694675.8,286046998.5,N
1666694695.6,286046998.9,N
1666694715.5,286046998.5,N
1666694735.3,286046999.3,N
1666694755.1,286046998.8,N
1666694775.9,286046998.5,N
1666694795.7,286047000.8,N
1666694815.6,286047001.1,N
1666694835.4,286047000.9,N
1666694855.2,286047000.9,N
1666694875.1,286047001.2,N
1666694876.0,286047001.2,N
1666694895.8,286047000.7,N
1666694915.6,286047000.4,N
1666694935.5,286047000.6,N
1666694955.3,286047001.1,N
1666694975.2,286047000.5,N
1666694995.9,286047001.2,N
1666695015.7,286046998.1,N
1666695035.6,286047001.1,N
1666695055.4,286046998.4,N
1666695075.2,286047001.1,N
1666695095.1,286047000.7,N
1666695096.0,286047000.7,N
1666695115.8,286047001.0,N
1666695135.7,286047000.9,N
1666695155.5,286046999.9,N
1666695175.3,286046999.9,N
1666695195.2,286047002.2,N
1666695215.0,286047002.6,N
1666695215.9,286047002.6,N
1666695235.7,286047002.3,N
1666695255.6,286047002.5,N
1666695275.4,286047002.2,N
1666695295.3,286047001.7,N
1666695315.1,286047001.4,N
1666695316.0,286047001.4,N
1666695335.8,286047004.1,Y
1666695355.7,286047002.7,P
1666695375.5,286047002.8,P
1666695395.4,286046999.8,N
1666695415.2,286047002.1,N
1666695435.0,286047001.5,N
1666695435.9,286047001.5,N
1666695455.8,286047003.9,Y
1666695475.6,286047000.4,P
1666695495.5,286047001.2,N
1666695515.3,286047000.7,N
1666695535.1,286047000.1,N
1666695555.9,286047000.0,N
1666695575.7,286047000.3,N
1666695595.5,286047000.1,N
